Simultaneous Nadir Overpasses (SNOs) Predictions

Prediction of SNOs between GOES-17 and NOAA-20 Satellite Orbit:

Table of predicted SNOs for the next 14.0 days since TLE Epoch: 12/14/2024
Index Date Time (GOES-17) GOES-17 Lat,Lon NOAA-20 Lat,Lon Distance(km) Time Diff (sec)
1 12/14/2024 20:25:05 -0.02,-104.67 -0.25,-105.70 117.70 80
2 12/15/2024 20:09:03 -0.02,-104.67 0.78,-101.18 397.94 80
3 12/17/2024 08:30:53 0.01,-104.71 0.39,-106.46 199.89 80
4 12/18/2024 08:09:30 0.00,-104.70 -0.59,-101.93 315.25 80
5 12/19/2024 20:31:29 0.00,-104.67 -0.60,-107.25 294.87 80
6 12/20/2024 20:15:26 0.01,-104.67 0.44,-102.73 221.22 80
7 12/22/2024 08:37:17 -0.01,-104.73 0.72,-108.01 374.67 80
8 12/23/2024 08:15:54 -0.02,-104.73 -0.32,-103.50 141.14 80
9 12/24/2024 20:37:53 0.01,-104.69 -0.91,-108.80 469.01 80
10 12/25/2024 20:21:49 0.01,-104.69 0.08,-104.27 47.40 80
